Weather History for KIWI - October, 2012

Change the Weather History Date:

Saturday, October 6, 2012

  Actual Average (KAUG) Record (KAUG)
Temperature  
Mean Temperature 60 °F 52 °F  
Max Temperature 71 °F 61 °F 77 °F (1997)
Min Temperature 48 °F 43 °F 28 °F (2004)
Degree Days  
Heating Degree Days 5 13  
Month to date heating degree days 73  
Since 1 July heating degree days 293  
Cooling Degree Days 0 0  
Month to date cooling degree days 0  
Year to date cooling degree days 387  
Growing Degree Days 10 (Base 50)    
Moisture  
Dew Point 55 °F    
Average Humidity 89    
Maximum Humidity 97    
Minimum Humidity 68    
Precipitation  
Precipitation 0.13 in 0.14 in 1.01 in (2000)
Month to date precipitation 0.81  
Year to date precipitation 30.73  
Sea Level Pressure  
Sea Level Pressure 29.81 in    
Wind  
Wind Speed 1 mph (SSW)    
Max Wind Speed 10 mph    
Max Gust Speed 21 mph    
Visibility 4 miles    
Events Fog , Rain    
T = Trace of Precipitation, MM = Missing Value Source: NWS Daily Summary

Daily Weather History Graph

Daily Weather History Graph

Search for Another Location

Airport or City:

Trip Planner

Search our weather history database for the weather conditions in past years. The results will help you decide how hot, cold, wet, or windy it might be!

Date:

Astronomy

Oct. 06, 2012 Rise Set
Actual Time 6:42 AM EDT 6:09 PM EDT
Civil Twilight 6:14 AM EDT 6:38 PM EDT
Nautical Twilight 5:40 AM EDT 7:12 PM EDT
Astronomical Twilight 5:07 AM EDT 7:45 PM EDT
Moon 10:13 PM EDT (10/6) 12:44 PM EDT (10/6)
Length of Visible Light 12h 24m
Length of Day
11h 26m
Waning Gibbous, 65% of the Moon is Illuminated
Oct 6
Waning Gibbous
Oct 8
Last Quarter
Oct 15
New
Oct 21
First Quarter
Oct 29
Full

Hourly Weather History & Observations

Time (EDT) Temp. Dew Point Humidity Pressure Visibility Wind Dir Wind Speed Gust Speed Precip Events Conditions
12:53 AM 59.0 °F 57.0 °F 93% 29.89 in 0.2 mi Calm Calm - N/A Fog Fog
1:53 AM 57.9 °F 57.0 °F 97% 29.88 in 0.5 mi Calm Calm - N/A Fog Fog
2:53 AM 57.9 °F 55.9 °F 93% 29.85 in 0.5 mi Calm Calm - N/A Fog Fog
3:27 AM 57.2 °F 55.4 °F 94% 29.85 in 1.0 mi Calm Calm - N/A   Mist
3:35 AM 57.2 °F 55.4 °F 94% 29.85 in 2.0 mi Calm Calm - N/A   Mostly Cloudy
3:41 AM 57.2 °F 55.4 °F 94% 29.85 in 1.8 mi Calm Calm - N/A   Mostly Cloudy
3:53 AM 57.0 °F 55.0 °F 93% 29.86 in 2.5 mi Calm Calm - N/A   Mostly Cloudy
4:00 AM 57.2 °F 55.4 °F 94% 29.85 in 5.0 mi Calm Calm - N/A   Mostly Cloudy
4:53 AM 57.0 °F 55.9 °F 96% 29.84 in 3.0 mi Calm Calm - N/A   Mostly Cloudy
5:01 AM 57.2 °F 55.4 °F 94% 29.84 in 2.5 mi Calm Calm - N/A   Mostly Cloudy
5:22 AM 57.2 °F 55.4 °F 94% 29.84 in 4.0 mi Calm Calm - N/A   Mostly Cloudy
5:53 AM 55.9 °F 54.0 °F 93% 29.84 in 2.5 mi Calm Calm - N/A   Clear
5:59 AM 55.4 °F 53.6 °F 94% 29.84 in 1.2 mi Calm Calm - N/A   Clear
6:18 AM 55.4 °F 53.6 °F 94% 29.83 in 1.5 mi Calm Calm - N/A   Partly Cloudy
6:40 AM 55.4 °F 53.6 °F 94% 29.83 in 2.5 mi Calm Calm - N/A   Clear
6:45 AM 55.4 °F 53.6 °F 94% 29.83 in 1.8 mi Calm Calm - N/A   Partly Cloudy
6:48 AM 55.4 °F 53.6 °F 94% 29.83 in 1.0 mi Calm Calm - N/A   Mist
6:53 AM 55.0 °F 53.1 °F 93% 29.83 in 0.8 mi Calm Calm - N/A   Clear
6:58 AM 55.4 °F 53.6 °F 94% 29.82 in 1.0 mi Calm Calm - N/A   Mist
7:05 AM 55.4 °F 53.6 °F 94% 29.82 in 0.8 mi Calm Calm - N/A   Clear
7:16 AM 55.4 °F 53.6 °F 94% 29.82 in 1.8 mi Calm Calm - N/A   Clear
7:18 AM 55.4 °F 53.6 °F 94% 29.82 in 3.0 mi Calm Calm - N/A   Clear
7:53 AM 60.1 °F 57.0 °F 90% 29.82 in 5.0 mi Calm Calm - N/A   Clear
8:53 AM 62.1 °F 57.9 °F 86% 29.82 in 6.0 mi Variable 3.5 mph - N/A   Clear
9:53 AM 64.9 °F 59.0 °F 81% 29.81 in 7.0 mi South 6.9 mph - N/A   Clear
10:53 AM 68.0 °F 60.1 °F 76% 29.80 in 10.0 mi South 8.1 mph - N/A   Clear
11:53 AM 69.1 °F 59.0 °F 70% 29.78 in 10.0 mi SSW 5.8 mph - N/A   Clear
12:53 PM 69.1 °F 60.1 °F 73% 29.74 in 10.0 mi South 8.1 mph 19.6 mph N/A   Clear
1:53 PM 70.0 °F 59.0 °F 68% 29.72 in 10.0 mi SSW 6.9 mph - N/A   Clear
2:53 PM 70.0 °F 59.0 °F 68% 29.70 in 10.0 mi SSW 10.4 mph 20.7 mph N/A   Clear
3:53 PM 69.1 °F 59.0 °F 70% 29.68 in 10.0 mi South 8.1 mph - N/A   Clear
4:53 PM 66.9 °F 59.0 °F 76% 29.67 in 10.0 mi South 5.8 mph - N/A   Partly Cloudy
5:53 PM 64.0 °F 60.1 °F 87% 29.70 in 2.0 mi SW 10.4 mph 16.1 mph 0.12 in Rain Heavy Rain
6:07 PM 64.4 °F 60.8 °F 88% 29.70 in 5.0 mi SW 5.8 mph - 0.05 in Rain Rain
6:36 PM 62.6 °F 60.8 °F 94% 29.72 in 3.0 mi Variable 3.5 mph - 0.08 in Rain Rain
6:48 PM 59.0 °F 55.4 °F 88% 29.75 in 6.0 mi Variable 6.9 mph - 0.10 in Rain Light Rain
7:27 PM 57.2 °F 53.6 °F 88% 29.76 in 10.0 mi Calm Calm - 0.00 in   Overcast
7:53 PM 55.9 °F 53.1 °F 90% 29.77 in 10.0 mi Calm Calm - 0.00 in   Overcast
8:53 PM 55.0 °F 51.1 °F 86% 29.80 in 10.0 mi Calm Calm - 0.01 in Rain Light Rain
9:53 PM 53.1 °F 51.1 °F 93% 29.84 in 10.0 mi Calm Calm - 0.00 in   Overcast
10:53 PM 52.0 °F 48.9 °F 89% 29.86 in 2.5 mi Calm Calm - N/A   Overcast
10:55 PM 51.8 °F 48.2 °F 88% 29.86 in 1.2 mi Calm Calm - N/A   Overcast
11:03 PM 51.8 °F 48.2 °F 88% 29.86 in 0.5 mi Calm Calm - N/A Fog Fog
11:17 PM 50.0 °F 48.2 °F 94% 29.86 in 1.5 mi Calm Calm - N/A   Mostly Cloudy
11:21 PM 50.0 °F 48.2 °F 94% 29.87 in 3.0 mi Calm Calm - N/A   Mostly Cloudy
11:29 PM 50.0 °F 48.2 °F 94% 29.87 in 1.5 mi Calm Calm - N/A   Mostly Cloudy
11:32 PM 50.0 °F 48.2 °F 94% 29.87 in 0.8 mi Calm Calm - N/A   Mostly Cloudy
11:53 PM 48.9 °F 46.0 °F 90% 29.88 in 0.2 mi Calm Calm - N/A Fog Fog